This is the latest recevied weather packets stored in our database for station/object K1ZK-13. If no packets are shown the sender has not sent any weather packets the latest 10 day(s).
| Time | Temp. | Humidity | Pressure | Rain* | Wind** | Luminosity | Snow |
|---|---|---|---|---|---|---|---|
| 1778100058 | 6.11° C | 99% | 1008.9 hPa | 4.32 mm | - | 65 W/m² | - |
| 1778099756 | 6.11° C | 99% | 1008.9 hPa | 4.32 mm | - | 71 W/m² | - |
| 1778098240 | 6.11° C | 99% | 1008.6 hPa | 0 mm | - | 51 W/m² | - |
| 1778097937 | 6.11° C | 99% | 1008.7 hPa | 0 mm | - | 51 W/m² | - |
| 1778097634 | 6.11° C | 99% | 1008.6 hPa | 1.78 mm | - | 51 W/m² | - |
| 1778097330 | 6.11° C | 99% | 1008.6 hPa | 1.78 mm | - | 41 W/m² | - |
| 1778097027 | 6.11° C | 99% | 1008.6 hPa | 0 mm | - | 53 W/m² | - |
| 1778096725 | 6.11° C | 99% | 1008.6 hPa | 0 mm | - | 53 W/m² | - |
| 1778095815 | 6.67° C | 99% | 1008.6 hPa | 0 mm | - | 55 W/m² | - |
| 1778095512 | 6.67° C | 99% | 1008.4 hPa | 0 mm | - | 51 W/m² | - |
| 1778095208 | 6.67° C | 99% | 1008.3 hPa | 1.27 mm | - | 80 W/m² | - |
| 1778094905 | 6.67° C | 99% | 1008.5 hPa | 1.27 mm | - | 92 W/m² | - |
| 1778094601 | 6.67° C | 99% | 1008.2 hPa | 0 mm | - | 113 W/m² | - |
| 1778094298 | 6.67° C | 99% | 1008.6 hPa | 0 mm | - | 138 W/m² | - |
| 1778093994 | 6.67° C | 99% | 1008.3 hPa | 0 mm | - | 95 W/m² | - |
| 1778093691 | 6.67° C | 99% | 1008.5 hPa | 1.78 mm | - | 95 W/m² | - |
| 1778093383 | 6.11° C | 99% | 1008.3 hPa | 1.78 mm | - | 88 W/m² | - |
| 1778093080 | 6.11° C | 99% | 1008.5 hPa | 0 mm | - | 91 W/m² | - |
| 1778092777 | 6.67° C | 99% | 1008.7 hPa | 1.27 mm | - | 118 W/m² | - |
| 1778092472 | 6.11° C | 99% | 1008.5 hPa | 1.27 mm | - | 101 W/m² | - |
| 1778092170 | 6.11° C | 99% | 1008.7 hPa | 0 mm | - | 73 W/m² | - |
| 1778091867 | 6.11° C | 99% | 1008.8 hPa | 0 mm | - | 73 W/m² | - |
| 1778091564 | 6.11° C | 99% | 1009 hPa | 0 mm | - | 72 W/m² | - |
| 1778091262 | 6.67° C | 99% | 1008.9 hPa | 0 mm | - | 75 W/m² | - |
| 1778090959 | 6.11° C | 99% | 1009 hPa | 0 mm | - | 88 W/m² | - |
* Rain latest hour (hover to see other rain measurements)
** Current wind speed in m/s (hover to see current wind gust speed)